VIR214K EGCC-EGLL

Flight info

Callsign VIR214K
Flight time 0h 31m
Altitude 19000
Route SANBA N859 HON
Aircraft A346/H-SDE2E3FGHIJ3J4J5M1RWXY/LB1D1

Departure

Time 2026-05-07 19:21
Airport Manchester Airport (EGCC)

Arrival

Time 2026-05-07 19:52
Airport London Heathrow Airport (EGLL)
Time Latitude Longitude Altitude Speed Heading
2026-05-07 18:43 53.36300 -2.27931 256 ft 0 kts 139°
2026-05-07 19:03 53.36302 -2.27934 256 ft 3 kts 139°
2026-05-07 19:03 53.36322 -2.27962 256 ft 4 kts 145°
2026-05-07 19:03 53.36343 -2.27979 256 ft 4 kts 169°
2026-05-07 19:04 53.36362 -2.27977 256 ft 4 kts 205°
2026-05-07 19:04 53.36374 -2.27962 256 ft 0 kts 227°
2026-05-07 19:04 53.36359 -2.27989 256 ft 4 kts 224°
2026-05-07 19:04 53.36340 -2.28020 256 ft 4 kts 225°
2026-05-07 19:05 53.36335 -2.28028 256 ft 0 kts 230°
2026-05-07 19:05 53.36336 -2.28028 256 ft 0 kts 230°
2026-05-07 19:10 53.36335 -2.28029 256 ft 0 kts 228°
2026-05-07 19:10 53.36332 -2.28032 256 ft 1 kts 210°
2026-05-07 19:11 53.36330 -2.28034 256 ft 0 kts 203°
2026-05-07 19:13 53.36322 -2.28039 256 ft 3 kts 202°
2026-05-07 19:13 53.36288 -2.28062 256 ft 7 kts 205°
2026-05-07 19:13 53.36231 -2.28112 256 ft 11 kts 210°
2026-05-07 19:13 53.36225 -2.28117 256 ft 0 kts 210°
2026-05-07 19:14 53.36188 -2.28135 256 ft 10 kts 182°
2026-05-07 19:14 53.36117 -2.28078 256 ft 14 kts 142°
2026-05-07 19:14 53.36038 -2.27953 256 ft 17 kts 135°
2026-05-07 19:14 53.35937 -2.27852 256 ft 17 kts 171°
2026-05-07 19:15 53.35848 -2.27793 256 ft 15 kts 140°
2026-05-07 19:15 53.35778 -2.27682 256 ft 13 kts 145°
2026-05-07 19:15 53.35686 -2.27601 256 ft 17 kts 148°
2026-05-07 19:15 53.35633 -2.27448 261 ft 16 kts 69°
2026-05-07 19:16 53.35710 -2.27274 261 ft 21 kts 48°
2026-05-07 19:16 53.35810 -2.27053 261 ft 26 kts 57°
2026-05-07 19:16 53.35920 -2.26788 262 ft 29 kts 56°
2026-05-07 19:16 53.36014 -2.26583 262 ft 12 kts 50°
2026-05-07 19:17 53.36083 -2.26441 262 ft 19 kts 51°
2026-05-07 19:17 53.36174 -2.26274 259 ft 20 kts 40°
2026-05-07 19:17 53.36211 -2.26220 258 ft 2 kts 45°
2026-05-07 19:17 53.36233 -2.26183 258 ft 7 kts 45°
2026-05-07 19:18 53.36261 -2.26109 258 ft 6 kts 72°
2026-05-07 19:18 53.36266 -2.26073 259 ft 0 kts 80°
2026-05-07 19:19 53.36269 -2.26047 259 ft 8 kts 78°
2026-05-07 19:19 53.36279 -2.25978 260 ft 10 kts 78°
2026-05-07 19:19 53.36267 -2.25812 266 ft 11 kts 128°
2026-05-07 19:20 53.36194 -2.25809 267 ft 14 kts 213°
2026-05-07 19:20 53.36107 -2.25979 267 ft 37 kts 232°
2026-05-07 19:20 53.35778 -2.26662 274 ft 111 kts 231°
2026-05-07 19:20 53.35151 -2.27962 278 ft 171 kts 230°
2026-05-07 19:21 53.34362 -2.29594 840 ft 185 kts 230°
2026-05-07 19:21 53.33825 -2.30709 1461 ft 185 kts 229°
2026-05-07 19:21 53.33057 -2.32374 2506 ft 177 kts 229°
2026-05-07 19:21 53.32311 -2.34044 3255 ft 185 kts 237°
2026-05-07 19:22 53.32013 -2.37057 3936 ft 218 kts 269°
2026-05-07 19:22 53.32113 -2.39736 4438 ft 242 kts 266°
2026-05-07 19:22 53.31950 -2.41649 4766 ft 250 kts 246°
2026-05-07 19:22 53.30905 -2.43927 4989 ft 251 kts 212°
2026-05-07 19:23 53.29272 -2.44849 5004 ft 251 kts 189°
2026-05-07 19:23 53.27558 -2.45016 4996 ft 252 kts 174°
2026-05-07 19:23 53.25874 -2.44172 5079 ft 255 kts 155°
2026-05-07 19:23 53.24314 -2.42727 5538 ft 257 kts 153°
2026-05-07 19:24 53.22748 -2.41248 6053 ft 260 kts 153°
2026-05-07 19:24 53.21147 -2.39779 6597 ft 264 kts 154°
2026-05-07 19:24 53.19524 -2.38323 7226 ft 267 kts 155°
2026-05-07 19:24 53.17875 -2.36863 7868 ft 270 kts 155°
2026-05-07 19:25 53.16198 -2.35389 8527 ft 273 kts 155°
2026-05-07 19:25 53.14507 -2.33910 9197 ft 276 kts 155°
2026-05-07 19:25 53.12794 -2.32413 9875 ft 280 kts 155°
2026-05-07 19:25 53.11048 -2.30890 10504 ft 291 kts 155°
2026-05-07 19:26 53.09199 -2.29282 11206 ft 307 kts 155°
2026-05-07 19:26 53.07247 -2.27586 11880 ft 326 kts 155°
2026-05-07 19:26 53.05178 -2.25788 12504 ft 345 kts 155°
2026-05-07 19:26 53.03024 -2.23914 13069 ft 364 kts 154°
2026-05-07 19:27 53.00733 -2.21923 13739 ft 379 kts 154°
2026-05-07 19:27 52.98376 -2.19875 14592 ft 385 kts 154°
2026-05-07 19:27 52.95996 -2.17809 15504 ft 389 kts 154°
2026-05-07 19:27 52.93576 -2.15712 16411 ft 395 kts 154°
2026-05-07 19:28 52.91124 -2.13591 17300 ft 400 kts 154°
2026-05-07 19:28 52.88640 -2.11446 18189 ft 405 kts 154°
2026-05-07 19:28 52.86125 -2.09276 18736 ft 410 kts 154°
2026-05-07 19:28 52.83587 -2.07089 19002 ft 412 kts 154°
2026-05-07 19:29 52.81043 -2.04900 19023 ft 412 kts 154°
2026-05-07 19:29 52.78531 -2.02742 19028 ft 412 kts 154°
2026-05-07 19:29 52.75986 -2.00560 19016 ft 412 kts 154°
2026-05-07 19:29 52.73442 -1.98382 19017 ft 412 kts 154°
2026-05-07 19:30 52.70895 -1.96202 19024 ft 413 kts 154°
2026-05-07 19:30 52.68346 -1.94024 19028 ft 413 kts 154°
2026-05-07 19:30 52.65793 -1.91846 19040 ft 413 kts 154°
2026-05-07 19:30 52.63239 -1.89670 19046 ft 413 kts 154°
2026-05-07 19:31 52.60692 -1.87504 19038 ft 413 kts 154°
2026-05-07 19:31 52.58137 -1.85333 19040 ft 413 kts 154°
2026-05-07 19:31 52.55613 -1.83191 19041 ft 413 kts 154°
2026-05-07 19:31 52.53062 -1.81029 19057 ft 413 kts 154°
2026-05-07 19:32 52.50508 -1.78867 19049 ft 413 kts 155°
2026-05-07 19:32 52.47952 -1.76706 19052 ft 413 kts 155°
2026-05-07 19:32 52.45392 -1.74545 19052 ft 414 kts 155°
2026-05-07 19:32 52.42832 -1.72388 19051 ft 414 kts 155°
2026-05-07 19:33 52.40276 -1.70237 19054 ft 414 kts 155°
2026-05-07 19:33 52.37734 -1.68013 19057 ft 414 kts 152°
2026-05-07 19:33 52.35299 -1.65479 19053 ft 415 kts 147°
2026-05-07 19:33 52.33029 -1.62658 19037 ft 417 kts 142°
2026-05-07 19:34 52.30818 -1.59571 19047 ft 417 kts 141°
2026-05-07 19:34 52.28632 -1.56470 19069 ft 417 kts 141°
2026-05-07 19:34 52.26437 -1.53355 19069 ft 417 kts 141°
2026-05-07 19:34 52.24240 -1.50254 19074 ft 417 kts 141°
2026-05-07 19:35 52.22043 -1.47162 19065 ft 417 kts 141°
2026-05-07 19:35 52.19851 -1.44088 19001 ft 412 kts 141°
2026-05-07 19:35 52.17687 -1.41060 18410 ft 409 kts 141°
2026-05-07 19:35 52.15549 -1.38076 17626 ft 410 kts 141°
2026-05-07 19:36 52.13395 -1.35072 17132 ft 403 kts 141°
2026-05-07 19:36 52.11282 -1.32128 16697 ft 396 kts 141°
2026-05-07 19:36 52.09214 -1.29250 16276 ft 388 kts 141°
2026-05-07 19:36 52.07179 -1.26423 15862 ft 381 kts 141°
2026-05-07 19:37 52.05182 -1.23652 15511 ft 373 kts 141°
2026-05-07 19:37 52.03239 -1.20960 15322 ft 361 kts 141°
2026-05-07 19:37 52.01365 -1.18366 15185 ft 347 kts 142°
2026-05-07 19:37 51.99566 -1.15877 15099 ft 334 kts 142°
2026-05-07 19:38 51.97831 -1.13480 15024 ft 321 kts 142°
2026-05-07 19:38 51.96172 -1.11190 15019 ft 306 kts 142°
2026-05-07 19:38 51.94605 -1.09028 14841 ft 297 kts 142°
2026-05-07 19:38 51.93039 -1.06872 14587 ft 293 kts 142°
2026-05-07 19:39 51.91494 -1.04747 14321 ft 289 kts 142°
2026-05-07 19:39 51.89973 -1.02658 14059 ft 284 kts 142°
2026-05-07 19:39 51.88476 -1.00602 13792 ft 280 kts 142°
2026-05-07 19:39 51.86993 -0.98566 13506 ft 276 kts 142°
2026-05-07 19:40 51.85594 -0.96465 13212 ft 274 kts 133°
2026-05-07 19:40 51.84540 -0.93911 12919 ft 273 kts 121°
2026-05-07 19:40 51.83686 -0.91191 12659 ft 269 kts 121°
2026-05-07 19:40 51.82486 -0.88819 12289 ft 286 kts 146°
2026-05-07 19:41 51.80668 -0.87478 11889 ft 288 kts 171°
2026-05-07 19:41 51.78715 -0.87437 11519 ft 284 kts 187°
2026-05-07 19:41 51.76778 -0.87860 11320 ft 275 kts 190°
2026-05-07 19:41 51.74875 -0.88353 11198 ft 274 kts 191°
2026-05-07 19:42 51.72970 -0.88859 10657 ft 281 kts 191°
2026-05-07 19:42 51.71009 -0.89382 9824 ft 291 kts 191°
2026-05-07 19:42 51.69015 -0.89914 9064 ft 288 kts 191°
2026-05-07 19:42 51.67061 -0.90442 8398 ft 283 kts 191°
2026-05-07 19:43 51.65134 -0.90975 7765 ft 279 kts 191°
2026-05-07 19:43 51.63264 -0.91494 7192 ft 274 kts 191°
2026-05-07 19:43 51.61410 -0.92007 6665 ft 268 kts 190°
2026-05-07 19:43 51.59594 -0.92526 6160 ft 261 kts 190°
2026-05-07 19:44 51.57825 -0.93046 6065 ft 258 kts 191°
2026-05-07 19:44 51.56057 -0.93546 6027 ft 259 kts 186°
2026-05-07 19:44 51.54260 -0.93733 6005 ft 259 kts 181°
2026-05-07 19:44 51.52464 -0.93800 5997 ft 255 kts 181°
2026-05-07 19:45 51.50712 -0.93846 5805 ft 250 kts 180°
2026-05-07 19:45 51.48986 -0.93897 5535 ft 247 kts 180°
2026-05-07 19:45 51.47287 -0.93830 5270 ft 243 kts 166°
2026-05-07 19:45 51.45832 -0.92677 4961 ft 233 kts 134°
2026-05-07 19:46 51.45023 -0.90542 4676 ft 220 kts 101°
2026-05-07 19:46 51.45071 -0.88191 4408 ft 209 kts 76°
2026-05-07 19:46 51.45501 -0.85985 4139 ft 201 kts 71°
2026-05-07 19:46 51.45962 -0.83937 4001 ft 187 kts 70°
2026-05-07 19:47 51.46406 -0.82004 4031 ft 183 kts 70°
2026-05-07 19:47 51.46847 -0.80092 3981 ft 182 kts 70°
2026-05-07 19:47 51.47248 -0.78164 3780 ft 182 kts 76°
2026-05-07 19:47 51.47478 -0.76207 3520 ft 175 kts 83°
2026-05-07 19:48 51.47591 -0.74296 3274 ft 168 kts 86°
2026-05-07 19:48 51.47662 -0.72458 3021 ft 162 kts 88°
2026-05-07 19:48 51.47697 -0.70673 2824 ft 160 kts 90°
2026-05-07 19:48 51.47712 -0.68902 2617 ft 160 kts 91°
2026-05-07 19:49 51.47717 -0.67115 2406 ft 160 kts 91°
2026-05-07 19:49 51.47719 -0.65324 2196 ft 160 kts 92°
2026-05-07 19:49 51.47720 -0.63530 1981 ft 161 kts 92°
2026-05-07 19:49 51.47723 -0.61757 1748 ft 155 kts 91°
2026-05-07 19:50 51.47725 -0.60086 1502 ft 146 kts 92°
2026-05-07 19:50 51.47728 -0.58453 1327 ft 145 kts 92°
2026-05-07 19:50 51.47730 -0.56830 1137 ft 145 kts 92°
2026-05-07 19:50 51.47732 -0.55241 950 ft 144 kts 92°
2026-05-07 19:51 51.47737 -0.53619 746 ft 142 kts 92°
2026-05-07 19:51 51.47741 -0.52054 552 ft 139 kts 92°
2026-05-07 19:51 51.47746 -0.50503 360 ft 138 kts 92°
2026-05-07 19:51 51.47752 -0.48969 176 ft 136 kts 92°
2026-05-07 19:52 51.47752 -0.47482 93 ft 122 kts 89°
2026-05-07 19:52 51.47757 -0.46438 100 ft 68 kts 90°
2026-05-07 19:52 51.47759 -0.45798 95 ft 43 kts 89°
2026-05-07 19:52 51.47718 -0.45492 94 ft 20 kts 153°
2026-05-07 19:53 51.47639 -0.45465 96 ft 0 kts 169°
2026-05-07 19:53 51.47631 -0.45463 96 ft 3 kts 169°
2026-05-07 19:53 51.47626 -0.45461 95 ft 0 kts 169°
2026-05-07 19:54 51.47625 -0.45461 94 ft 1 kts 169°
2026-05-07 19:54 51.47606 -0.45459 94 ft 5 kts 180°
2026-05-07 19:54 51.47562 -0.45472 96 ft 8 kts 199°
2026-05-07 19:54 51.47515 -0.45546 98 ft 12 kts 257°
2026-05-07 19:55 51.47512 -0.45701 98 ft 15 kts 275°
2026-05-07 19:55 51.47517 -0.45894 94 ft 19 kts 271°
2026-05-07 19:55 51.47517 -0.46079 95 ft 17 kts 269°
2026-05-07 19:55 51.47516 -0.46293 94 ft 21 kts 269°
2026-05-07 19:56 51.47515 -0.46530 95 ft 15 kts 270°
2026-05-07 19:56 51.47511 -0.46700 96 ft 14 kts 253°
2026-05-07 19:56 51.47413 -0.46733 96 ft 18 kts 172°
2026-05-07 19:56 51.47277 -0.46726 94 ft 19 kts 180°
2026-05-07 19:57 51.47130 -0.46724 95 ft 23 kts 180°
2026-05-07 19:57 51.47011 -0.46674 97 ft 7 kts 151°
2026-05-07 19:57 51.46959 -0.46624 98 ft 8 kts 145°
2026-05-07 19:57 51.46932 -0.46578 99 ft 5 kts 96°
2026-05-07 19:58 51.46940 -0.46532 97 ft 3 kts 62°
2026-05-07 19:58 51.46950 -0.46506 99 ft 1 kts 57°
2026-05-07 19:58 51.46953 -0.46497 97 ft 0 kts 57°